Home   Weather   Futaba   Past weeks
Flag for Japan

Past Weather in Futaba, Japan — Yesterday and Last 2 Weeks

Now
69 °F

Mild.


Feels Like: 69 °F
Forecast: 69 / 65 °F
Wind: 7 mph from North

Location: Tokyo
Current Time: Sep 23, 2020 at 7:47:29 pm
Latest Report: Sep 23, 2020 at 7:00 pm
Visibility: N/A
Pressure29.93 "Hg
Humidity: 97%
Dew Point: 67 °F
Location of FutabaLocation

Past Weather in Futaba — Graph

°F

Futaba Temperature Yesterday

Maximum temperature yesterday: 81 °F (at 12:00 pm)
Minimum temperature yesterday: 67 °F (at 5:00 am)
Average temperature yesterday: 73 °F

High & Low Weather Summary for the Past Weeks

 TemperatureHumidityPressure
High92 °F (Sep 18, 1:00 pm)100% (Sep 12, 2:00 am)30.07 "Hg (Sep 12, 2:00 am)
Low66 °F (Sep 23, 2:00 am)53% (Sep 9, 11:00 am)29.68 "Hg (Sep 18, 4:00 pm)
Average77 °F82%29.91 "Hg
* Reported Sep 8 6:00 pm — Sep 23 6:00 pm, Futaba. Weather by CustomWeather, © 2020

Note: Actual official high and low records may vary slightly from our data, if they occured in-between our weather recording intervals... More about our weather records

Futaba Weather History for the Previous 24 Hours

Scroll right to see more
 ConditionsComfort  
Time TempWeatherWind HumidityBarometerVisibility
6:00 pm
Wed, Sep 23
70 °FOvercast.7 mph91%29.92 "Hg9 mi
5:00 pm71 °FMild.6 mph92%29.92 "HgN/A
4:00 pm72 °FMild.7 mph89%29.92 "HgN/A
2:00 pm73 °FMild.5 mph95%29.93 "HgN/A
1:00 pm71 °FMild.6 mph94%29.94 "HgN/A
12:00 pm69 °FSprinkles. Overcast.5 mph98%29.97 "Hg5 mi
11:00 am69 °FMild.6 mph96%29.98 "HgN/A
10:00 am69 °FMild.7 mph89%29.99 "HgN/A
9:00 am69 °FLight rain. Overcast.6 mph91%30.00 "Hg9 mi
8:00 am68 °FMild.6 mph96%30.01 "HgN/A
7:00 am66 °FMild.6 mph96%30.00 "HgN/A
6:00 am66 °FLight rain. Overcast.7 mph98%29.98 "Hg5 mi
5:00 am66 °FMild.5 mph99%29.98 "HgN/A
4:00 am66 °FMild.5 mph97%29.99 "HgN/A
3:00 am66 °FLight rain. Overcast.3 mph99%30.01 "Hg9 mi
2:00 am66 °FMild.3 mph98%30.02 "HgN/A
1:00 am67 °FMild.3 mph97%30.01 "HgN/A
12:00 am67 °FMild.6 mph96%30.01 "HgN/A
11:00 pm
Tue, Sep 22
67 °FMild.3 mph94%30.04 "HgN/A
10:00 pm67 °FMild.3 mph88%30.05 "HgN/A
9:00 pm71 °FLight rain. Overcast.7 mph87%30.04 "Hg12 mi
8:00 pm73 °FMild.7 mph75%30.05 "HgN/A
7:00 pm73 °FMild.8 mph76%30.04 "HgN/A
Weather by CustomWeather, © 2020

See weather overview